Location: Vlissingen
(51.4500°N, 3.5830°E)
Time: 12:46:13
(UTC+01:00)

N. Korean satellite - Pass Details

Date: 09 December 2021
Orbit: 447 x 490 km, 97.3° (Epoch: 27 January)

Event Time Altitude Azimuth Distance (km) Brightness Sun altitude
Rises 17:10:40 0° 172° (S) 2,505 10.5 -5.2°
Reaches altitude 10° 17:12:44 10° 175° (S) 1,625 9.6 -5.4°
Maximum altitude 17:16:12 66° 258° (WSW) 513 7.0 -5.9°
Drops below altitude 10° 17:19:38 10° 342° (NNW) 1,614 9.1 -6.4°
Sets 17:21:41 0° 345° (NNW) 2,487 10.0 -6.7°
